Location: Unspecified
(0.0000°N, 0.0000°E)
Time: 17:31:09
(UTC+00:00)

Vanguard 2 - Pass Details

Date: 19 April 2026
Orbit: 553 x 2895 km, 32.9° (Epoch: 17 May)

Event Time Altitude Azimuth Distance (km) Brightness Sun altitude
Exits shadow 01:37:01 11° 147° (SSE) 5,175 11.7 -63.3°
Drops below altitude 10° 01:37:48 10° 144° (SE) 5,220 11.7 -63.1°
Sets 01:44:09 0° 124° (ESE) 5,811 12.2 -61.7°
